This demonstration page uses our WeatherBlox Daily Observations layout. Learn more.

Left ArrowRight Arrow

Hourly Observations for October 25, 2015

Temp ( °F °C ) Dew Point ( °F °C ) Humidity (%) Winds ( mph kmh ) Pressure ( in mb ) Visibility ( mi km ) Precip ( " mm )
12:15 am 00:15 Partly Cloudy 55 13 52 11 88 88 S 7 11 30.15 1021 10 16 N/A
12:35 am 00:35 Partly Cloudy 55 13 52 11 88 88 S 7 11 30.15 1021 10 16 N/A
12:55 am 00:55 Mostly Cloudy 57 14 52 11 82 82 S 6 9 30.15 1021 10 16 N/A
1:15 am 01:15 Cloudy 57 14 52 11 82 82 S 6 9 30.12 1020 10 16 N/A
1:35 am 01:35 Cloudy 55 13 52 11 88 88 S 6 9 30.12 1020 10 16 N/A
1:55 am 01:55 Cloudy with Light Rain 55 13 54 12 94 94 S 6 9 30.12 1020 10 16 N/A
2:15 am 02:15 Cloudy with Light Rain 55 13 54 12 94 94 S 8 13 30.12 1020 10 16 N/A
2:35 am 02:35 Cloudy with Light Rain 55 13 54 12 94 94 S 6 9 30.12 1020 10 16 N/A
2:55 am 02:55 Cloudy with Light Rain 55 13 54 12 94 94 S 7 11 30.12 1020 10 16 N/A
3:15 am 03:15 Cloudy with Light Rain 55 13 54 12 94 94 S 7 11 30.09 1019 10 16 N/A
3:35 am 03:35 Cloudy with Light Rain 55 13 54 12 94 94 S 8 13 30.09 1019 10 16 N/A
3:55 am 03:55 Cloudy with Light Rain 55 13 55 13 100 100 S 8 13 30.09 1019 10 16 N/A
4:15 am 04:15 Cloudy with Drizzle 55 13 55 13 100 100 S 7 11 30.06 1018 10 16 N/A
4:35 am 04:35 Cloudy 55 13 55 13 100 100 S 7 11 30.06 1018 10 16 N/A
4:55 am 04:55 Mostly Cloudy 55 13 55 13 100 100 S 8 13 30.06 1018 10 16 N/A
5:15 am 05:15 Mostly Cloudy 55 13 55 13 100 100 S 6 9 30.06 1018 10 16 N/A
5:35 am 05:35 Cloudy 55 13 55 13 100 100 S 7 11 30.06 1018 10 16 N/A
5:55 am 05:55 Cloudy 55 13 55 13 100 100 S 6 9 30.06 1018 10 16 N/A
6:15 am 06:15 Cloudy 55 13 55 13 100 100 S 7 11 30.06 1018 10 16 N/A
6:35 am 06:35 Cloudy 55 13 55 13 100 100 S 6 9 30.06 1018 10 16 N/A
6:55 am 06:55 Cloudy 55 13 55 13 100 100 S 5 7 30.09 1019 10 16 N/A
7:15 am 07:15 Mostly Cloudy with Light Rain 55 13 55 13 100 100 S 5 7 30.09 1019 10 16 N/A
7:35 am 07:35 Cloudy with Light Rain 55 13 55 13 100 100 SSW 3 6 30.09 1019 10 16 N/A
7:55 am 07:55 Cloudy with Light Rain 55 13 55 13 100 100 S 3 6 30.09 1019 10 16 N/A
8:15 am 08:15 Partly Cloudy 55 13 55 13 100 100 SSW 5 7 30.09 1019 10 16 N/A
8:35 am 08:35 Mostly Cloudy 55 13 55 13 100 100 N N/A 30.09 1019 10 16 N/A
8:55 am 08:55 Cloudy 55 13 55 13 100 100 SSW 3 6 30.09 1019 10 16 N/A
9:15 am 09:15 Partly Cloudy 55 13 55 13 100 100 N N/A 30.12 1020 10 16 N/A
9:35 am 09:35 Mostly Cloudy 57 14 57 14 100 100 N N/A 30.12 1020 10 16 N/A
9:55 am 09:55 Cloudy 57 14 57 14 100 100 NNW 5 7 30.12 1020 10 16 N/A
10:15 am 10:15 Cloudy 59 15 57 14 94 94 WSW 3 6 30.15 1021 10 16 N/A
10:35 am 10:35 Cloudy 59 15 59 15 100 100 SW 6 9 30.15 1021 10 16 N/A
10:55 am 10:55 Cloudy 59 15 59 15 100 100 SW 5 7 30.15 1021 10 16 N/A
11:15 am 11:15 Mostly Cloudy 59 15 59 15 100 100 W 3 6 30.15 1021 10 16 N/A
11:35 am 11:35 Partly Cloudy 63 17 61 16 94 94 W 6 9 30.15 1021 10 16 N/A
11:55 am 11:55 Sunny 66 19 61 16 83 83 WNW 8 13 30.15 1021 10 16 N/A
12:15 pm 12:15 Sunny 68 20 61 16 78 78 WNW 6 9 30.15 1021 10 16 N/A
12:35 pm 12:35 Sunny 68 20 55 13 64 64 NNW 14 22 30.15 1021 10 16 N/A
12:55 pm 12:55 Sunny 70 21 59 15 69 69 NW 13 20 30.12 1020 10 16 N/A
1:15 pm 13:15 Partly Cloudy 68 20 54 12 60 60 NNW 17 28 30.12 1020 10 16 N/A
1:35 pm 13:35 Sunny 68 20 55 13 64 64 NW 12 19 30.12 1020 10 16 N/A
1:55 pm 13:55 Sunny 68 20 54 12 60 60 NNW 20 31 30.12 1020 10 16 N/A
2:15 pm 14:15 Partly Cloudy 70 21 55 13 60 60 NW 12 19 30.12 1020 10 16 N/A
2:35 pm 14:35 Mostly Cloudy 70 21 54 12 57 57 NNW 13 20 30.12 1020 10 16 N/A
2:55 pm 14:55 Mostly Cloudy 68 20 54 12 60 60 WNW 17 28 30.12 1020 10 16 N/A
3:15 pm 15:15 Partly Cloudy 68 20 54 12 60 60 NW 17 28 30.12 1020 10 16 N/A
3:35 pm 15:35 Sunny 68 20 52 11 56 56 NW 18 30 30.15 1021 10 16 N/A
3:55 pm 15:55 Partly Cloudy 68 20 52 11 56 56 NNW 14 22 30.15 1021 10 16 N/A
4:15 pm 16:15 Mostly Cloudy 68 20 52 11 56 56 NNW 16 26 30.15 1021 10 16 N/A
4:35 pm 16:35 Partly Cloudy 66 19 52 11 60 60 N 12 19 30.15 1021 10 16 N/A
4:55 pm 16:55 Sunny 64 18 52 11 64 64 NNW 12 19 30.15 1021 10 16 N/A
5:15 pm 17:15 Sunny 64 18 50 10 60 60 N 13 20 30.15 1021 10 16 N/A
5:35 pm 17:35 Sunny 64 18 50 10 60 60 N 7 11 30.18 1022 10 16 N/A
5:55 pm 17:55 Sunny 63 17 46 8 56 56 N 13 20 30.18 1022 10 16 N/A
6:15 pm 18:15 Sunny 63 17 46 8 56 56 NNW 13 20 30.18 1022 10 16 N/A
6:35 pm 18:35 Clear 61 16 45 7 55 55 NNW 10 17 30.21 1023 10 16 N/A
6:55 pm 18:55 Clear 61 16 45 7 55 55 NNW 15 24 30.21 1023 10 16 N/A
7:15 pm 19:15 Clear 61 16 45 7 55 55 NNW 15 24 30.21 1023 10 16 N/A
7:35 pm 19:35 Clear 59 15 45 7 59 59 NNW 12 19 30.24 1024 10 16 N/A
7:55 pm 19:55 Clear 59 15 45 7 59 59 NNW 13 20 30.24 1024 10 16 N/A
8:15 pm 20:15 Clear 59 15 45 7 59 59 NNW 10 17 30.27 1025 10 16 N/A
8:35 pm 20:35 Clear 59 15 45 7 59 59 NNW 9 15 30.27 1025 10 16 N/A
8:55 pm 20:55 Clear 59 15 45 7 59 59 NNW 9 15 30.27 1025 10 16 N/A
9:15 pm 21:15 Clear 57 14 45 7 63 63 N 9 15 30.27 1025 10 16 N/A
9:35 pm 21:35 Clear 57 14 43 6 59 59 NNW 12 19 30.27 1025 10 16 N/A
9:55 pm 21:55 Clear 55 13 43 6 63 63 NNE 6 9 30.30 1026 10 16 N/A
10:15 pm 22:15 Clear 55 13 43 6 63 63 N N/A 30.30 1026 10 16 N/A
10:35 pm 22:35 Clear 55 13 43 6 63 63 N N/A 30.30 1026 10 16 N/A
10:55 pm 22:55 Clear 54 12 43 6 67 67 NNE 5 7 30.36 1028 10 16 N/A
11:15 pm 23:15 Clear 54 12 43 6 67 67 N 7 11 30.36 1028 10 16 N/A
11:35 pm 23:35 Clear 54 12 43 6 67 67 N 8 13 30.36 1028 10 16 N/A
11:55 pm 23:55 Clear 52 11 43 6 72 72 N 8 13 30.36 1028 10 16 N/A

Powered by AerisWeather